Location: Unspecified
(0.0000°N, 0.0000°E)
Time: 11:19:28
(UTC+00:00)

SR - Pass Details

Date: 21 November 2019
Orbit: 573 x 882 km, 66.7° (Epoch: 13 December)

Event Time Altitude Azimuth Distance (km) Brightness Sun altitude
Rises 13:38:25 0° 233° (SW) 2,943 ? 56.0°
Reaches altitude 10° 13:41:29 10° 256° (WSW) 2,090 ? 55.4°
Maximum altitude 13:44:17 16° 292° (WNW) 1,797 ? 54.8°
Drops below altitude 10° 13:47:12 10° 329° (NNW) 2,203 ? 54.2°
Sets 13:50:36 0° 350° (N) 3,194 ? 53.5°
